Back to catalog

SL-3 R/B

AlivePO
NORAD 8027·ROCKET BODY·🇷🇺 Russia

Launched Jul 11, 1975 from Plesetsk Cosmodrome

Loading…

Next Passes (next 24 hours)

TLE

FreshSource: Space-Track

Epoch: Sep 14, 2026, 09:14 UTC

1 08027U 75064B   26257.38473787  .00000102  00000-0  51750-4 0  9993
2 08027  81.2961  42.8350 0059714 114.6266 246.1140 14.07788449627128

Track SL-3 R/B in real time with AllMySat

Download on the App Store